カタログに戻る

THORAD AGENA D DEB

運用中LEO
NORAD 5755·DEBRIS·🇺🇸 United States

打ち上げ Sep 30, 1969 から Vandenberg Space Force Base

Loading…

次のパス (今後24時間)

TLE

最新Source: Space-Track

元期: Sep 14, 2026, 12:01 UTC

1 05755U 69082JP  26257.50111774  .00001549  00000-0  41853-3 0  9998
2 05755  69.9235  84.5744 0009335 271.1449  88.8615 14.49627676947624

AllMySatでTHORAD AGENA D DEBをリアルタイム追跡

Download on the App Store